Weather History for KTTN - May, 2013

Change the Weather History Date:

Friday, May 3, 2013

  Actual Average Record
Temperature  
Mean Temperature 55 °F 57 °F  
Max Temperature 64 °F 68 °F 90 °F (1913)
Min Temperature 46 °F 46 °F 35 °F (2005)
Degree Days  
Heating Degree Days 10 9  
Month to date heating degree days 30 27  
Since 1 July heating degree days 4804 4995  
Cooling Degree Days 0 1  
Month to date cooling degree days 0 3  
Year to date cooling degree days 14 11  
Growing Degree Days 4 (Base 50)    
Moisture  
Dew Point 39 °F    
Average Humidity 59    
Maximum Humidity 82    
Minimum Humidity 36    
Precipitation  
Precipitation 0.00 in 0.10 in 2.20 in (1985)
Month to date precipitation 0.00 0.27  
Year to date precipitation 9.48 13.42  
Sea Level Pressure  
Sea Level Pressure 30.37 in    
Wind  
Wind Speed 9 mph (ESE)    
Max Wind Speed 20 mph    
Max Gust Speed 24 mph    
Visibility 10 miles    
Events      
T = Trace of Precipitation, MM = Missing Value Source: NWS Daily Summary

Daily Weather History Graph

Daily Weather History Graph

Search for Another Location

Airport or City:

Trip Planner

Search our weather history database for the weather conditions in past years. The results will help you decide how hot, cold, wet, or windy it might be!

Date:

Astronomy

May. 03, 2013 Rise Set
Actual Time 5:56 AM EDT 7:56 PM EDT
Civil Twilight 5:26 AM EDT 8:26 PM EDT
Nautical Twilight 4:50 AM EDT 9:02 PM EDT
Astronomical Twilight 4:10 AM EDT 9:42 PM EDT
Moon 2:19 AM EDT (5/3) 1:48 PM EDT (5/3)
Length of Visible Light 15h 00m
Length of Day
14h 00m
Last Quarter, 37% of the Moon is Illuminated
May 3
Last Quarter
May 9
New
May 18
First Quarter
May 25
Full
May 31
Last Quarter

Hourly Weather History & Observations

Time (EDT) Temp. Dew Point Humidity Pressure Visibility Wind Dir Wind Speed Gust Speed Precip Events Conditions
12:53 AM 51.1 °F 39.9 °F 66% 30.34 in 10.0 mi Calm Calm - N/A   Clear
1:53 AM 46.9 °F 39.9 °F 77% 30.35 in 10.0 mi ESE 4.6 mph - N/A   Clear
2:53 AM 48.0 °F 39.9 °F 74% 30.37 in 10.0 mi East 5.8 mph - N/A   Scattered Clouds
3:53 AM 48.9 °F 41.0 °F 74% 30.37 in 10.0 mi ESE 6.9 mph - N/A   Mostly Cloudy
4:53 AM 48.0 °F 43.0 °F 83% 30.38 in 10.0 mi East 10.4 mph - N/A   Clear
5:53 AM 50.0 °F 41.0 °F 71% 30.39 in 10.0 mi East 12.7 mph - N/A   Mostly Cloudy
6:53 AM 50.0 °F 39.0 °F 66% 30.41 in 10.0 mi East 6.9 mph - N/A   Mostly Cloudy
7:53 AM 53.1 °F 39.9 °F 61% 30.42 in 10.0 mi East 9.2 mph - N/A   Partly Cloudy
8:53 AM 55.0 °F 37.9 °F 53% 30.42 in 10.0 mi ESE 10.4 mph 18.4 mph N/A   Clear
9:53 AM 57.0 °F 39.0 °F 51% 30.41 in 10.0 mi ESE 11.5 mph 19.6 mph N/A   Clear
10:53 AM 57.9 °F 39.0 °F 49% 30.42 in 10.0 mi ESE 8.1 mph 17.3 mph N/A   Clear
11:53 AM 60.1 °F 37.0 °F 42% 30.41 in 10.0 mi East 10.4 mph - N/A   Clear
12:53 PM 60.1 °F 37.0 °F 42% 30.40 in 10.0 mi SE 12.7 mph 18.4 mph N/A   Clear
1:53 PM 61.0 °F 36.0 °F 39% 30.38 in 10.0 mi ESE 11.5 mph 18.4 mph N/A   Clear
2:53 PM 62.1 °F 36.0 °F 38% 30.37 in 10.0 mi SE 10.4 mph 16.1 mph N/A   Clear
3:53 PM 62.1 °F 35.1 °F 37% 30.34 in 10.0 mi SSE 8.1 mph 19.6 mph N/A   Clear
4:53 PM 63.0 °F 37.0 °F 38% 30.33 in 10.0 mi SE 10.4 mph 17.3 mph N/A   Clear
5:53 PM 62.1 °F 37.0 °F 39% 30.33 in 10.0 mi SE 15.0 mph - N/A   Clear
6:53 PM 59.0 °F 37.9 °F 46% 30.34 in 10.0 mi SE 10.4 mph - N/A   Clear
7:53 PM 55.0 °F 39.9 °F 57% 30.34 in 10.0 mi South 12.7 mph - N/A   Clear
8:53 PM 51.1 °F 41.0 °F 68% 30.36 in 10.0 mi SSE 8.1 mph - N/A   Clear
9:53 PM 48.9 °F 41.0 °F 74% 30.37 in 10.0 mi SE 4.6 mph - N/A   Clear
10:53 PM 48.0 °F 41.0 °F 77% 30.37 in 10.0 mi SE 3.5 mph - N/A   Clear
11:53 PM 46.0 °F 41.0 °F 83% 30.35 in 10.0 mi Calm Calm - N/A   Clear